www.pogodaiklimat.ru

Погода и климат >> Архив погоды >> Канада >> Spence bay


ПОГОДА в Spence bay

  • Прогноз погоды в Spence bay
  • Монитор погоды в Spence bay
  • Климат города

АРХИВ ПОГОДЫ в Spence bay

Время (UTC), дата Ветер
(напр.,м/с)
 
Видим.   Явления Облачность Т
(С)
Тd
(С)
f
(%)
Тe
(С)
Тes
(С)
Комфортность P
(гПа)
Po
(гПа)
Тmin
(С)
Tmax
(С)
R
(мм)
R24
(мм)
S
(см)
00 12.01 СЗ 7 24 км ледяные иглы {снег} 5/1 600 м
[Sc Ac As Ci fib]
-21.4 -25.3 71 -34 -34 опасность
обморожения
998.9 995.2 -24.6 -19.3 0.0 18
03 12.01 0 19 км 1/1 600 м
[]
-24.4 -27.7 74 998.5 994.8
06 12.01 0 16 км ледяные иглы {снег} 10/10 600 м
[Sc]
-23.5 -26.8 74 998.5 994.8 -25.4 -19.3 0.0 18
09 12.01 0 9000 м 10/10 600 м
[]
-24.5 -27.9 73 998.1 994.4
12 12.01 0 16 км ледяные иглы {снег} 3/3 600 м
[Sc]
-26.7 -29.9 74 997.6 993.9 -26.7 -19.3 0.0 18
15 12.01 0 24 км ясно -26.7 -30.2 72 997.6 993.9
18 12.01 СЗ 7 16 км {снег} 8/8 600 м
[Sc]
-26.2 -29.9 71 -40 -40 опасность
обморожения
997.8 994.1 -27.4 -24.1 0.0 18
21 12.01 0 6000 м 9/9 600 м
[]
-23.9 -27.3 73 998.9 995.2
00 13.01 3200 м ледяные иглы {снег} н/о -22.8 -26.1 74 -37 -37 опасность
обморожения
999.1 995.4 -27.4 -22.8 0.0 18
03 13.01 0 9000 м 8/8 300 м
[]
-23.4 -27.1 72 999.4 995.7
06 13.01 0 16 км ледяные иглы {снег} 3/3 300 м
[Sc]
-26.1 -29.3 74 999.6 995.8 -27.4 -22.8 0.0 18
09 13.01 0 16 км 8/8 300 м
[]
-26.1 -29.4 74 1000.8 997.1
12 13.01 0 24 км ледяные иглы {снег} 3/3 300 м
[Sc]
-29.7 -33.3 71 1002.1 998.3 -29.7 -22.8 0.0 18
15 13.01 0 24 км 1/0
[]
-31.0 -34.3 73 1002.8 999.0
18 13.01 0 24 км ледяные иглы {снег} ясно -31.2 -34.4 73 1003.9 1000.1 -31.9 -25.3 0.2 18
21 13.01 0 24 км ясно -32.2 -35.6 72 1006.3 1002.5
00 14.01 0 24 км ледяные иглы {снег} ясно -35.1 -38.8 69 1008.8 1005.0 -35.5 -29.9 0.2 18
03 14.01 0 19 км ясно -34.7 -38.5 68 1011.3 1007.4
06 14.01 0 24 км ледяные иглы {снег} ясно -35.2 -38.9 69 1013.4 1009.5 -36.0 -25.3 0.0 18
09 14.01 0 16 км 6/6 300 м
[]
-33.5 -37.2 69 1015.5 1011.6
12 14.01 0 4800 м ледяные иглы {снег} 3/3 300 м
[Sc]
-33.3 -36.9 70 1016.2 1012.3 -36.0 -25.3 0.0 18
15 14.01 0 24 км ясно -30.1 -33.9 69 1016.6 1012.7
06 15.01 0 24 км ясно -31.7 -35.1 72 1022.0 1018.1 18
09 15.01 0 24 км 4/4 300 м
[]
-32.1 -35.7 70 1022.9 1019.0
12 15.01 0 24 км ледяные иглы {снег} 3/3 300 м
[Sc]
-32.3 -35.9 70 1021.9 1018.0 0.0 18
15 15.01 0 24 км 4/0
[]
-30.8 -34.3 71 1020.5 1016.6
18 15.01 0 19 км ледяные иглы {снег} 6/6 1500 м
[Sc Ac trans Ci sp]
-29.4 -32.8 72 1018.9 1015.0 -29.4 0.0 18
21 15.01 0 24 км 9/9 1500 м
[]
-28.4 -31.7 73 1017.8 1013.9
00 16.01 0 24 км ледяные иглы {снег} 9/9 1500 м
[Sc Ac trans]
-27.0 -30.2 74 1016.5 1012.7 -33.0 -27.0 0.0 18
03 16.01 0 24 км 3/3 1500 м
[]
-30.5 -33.9 72 1015.2 1011.4
06 16.01 0 24 км ледяные иглы {снег} 3/0
[Ac trans]
-32.5 -36.0 71 1014.6 1010.8 -33.0 -27.0 0.0 18
09 16.01 0 24 км 5/0
[]
-29.8 -33.1 73 1014.8 1011.0
12 16.01 0 24 км ледяные иглы {снег} 3/0
[Ac trans]
-28.9 -32.1 74 1014.3 1010.5 -32.6 -27.0 0.0 18
15 16.01 0 24 км 5/0
[]
-28.8 -32.0 74 1014.7 1010.9
18 16.01 0 24 км ледяные иглы {снег} 4/4 1000 м
[Sc Ac trans Ci sp]
-27.4 -30.5 75 1015.1 1011.3 -32.6 -27.4 0.0 18
21 16.01 С 4 24 км 8/0
[]
-29.6 -33.3 70 -41 -41 опасность
обморожения
1016.2 1012.4
00 17.01 С 4 24 км ледяные иглы {снег} 6/0
[Ac As]
-28.3 -32.0 70 -39 -39 опасность
обморожения
1016.9 1013.1 -31.9 -27.0 0.0 18
03 17.01 СВ 3 24 км 9/0 2000 м
[]
-25.9 -29.4 72 -35 -35 опасность
обморожения
1016.4 1012.6
06 17.01 С 3 24 км ледяные иглы {снег} 9/6 1500 м
[Sc Ac As]
-24.1 -27.5 73 -33 -33 опасность
обморожения
1015.9 1012.1 -31.9 -24.1 0.0 19
09 17.01 С 2 24 км 5/5 1500 м
[]
-23.9 -27.2 74 -31 -31 опасность
обморожения
1016.1 1012.3
12 17.01 С 1 24 км слабый снег 4/1 1500 м
[Sc Ac trans]
-25.8 -29.3 72 -27 -27 1016.3 1012.5 -28.6 -24.1 0.0 18
15 17.01 СВ 2 24 км ясно -28.5 -32.1 71 -34 -34 опасность
обморожения
1015.5 1011.7
18 17.01 С 4 24 км ледяные иглы {снег} ясно -32.3 -36.2 68 -43 -43 опасность
обморожения
1015.3 1011.5 -32.5 -23.7 0.0 18
21 17.01 С 2 24 км ясно -31.8 -35.7 68 -40 -40 опасность
обморожения
1015.1 1011.3
00 18.01 С 3 24 км ледяные иглы {снег} ясно -30.5 -34.3 69 -40 -40 опасность
обморожения
1014.6 1010.8 -33.8 -25.3 0.0 18
03 18.01 С 2 24 км ясно -31.9 -35.9 68 -38 -38 опасность
обморожения
1014.2 1010.4
06 18.01 С 3 24 км ледяные иглы {снег} ясно -33.4 -37.4 67 -44 -44 опасность
обморожения
1014.5 1010.6 -34.6 -23.7 0.0 18
09 18.01 СВ 1 24 км ясно -35.1 -39.2 66 -40 -40 опасность
обморожения
1015.2 1011.3
12 18.01 СВ 2 24 км ледяные иглы {снег} ясно -35.3 -39.4 66 -42 -42 опасность
обморожения
1015.5 1011.6 -36.6 -23.7 0.0 18
15 18.01 СВ 3 24 км 3/3 200 м
[]
-34.9 -39.0 66 -46 -46 опасность
обморожения
1015.4 1011.5
18 18.01 СВ 2 24 км ледяные иглы {снег} 3/0 2000 м
[Ac trans Ci fib]
-35.1 -39.3 65 -42 -42 опасность
обморожения
1015.9 1012.0 -36.6 -31.4 0.0 18
21 18.01 СВ 4 24 км 1/1 300 м
[]
-34.3 -38.4 66 -46 -46 опасность
обморожения
1016.3 1012.4

 

Местоположение метеостанции Spence bay (Канада): широта 69.55 долгота -93.58 высота над уровнем моря 28 м.

В архиве по умолчанию представлена погода в Spence bay за последнюю неделю. Архивные данные за месяц целиком и за предыдущие месяцы, начиная с января 2011 года, Вы можете получить, выбрав интересующий диапазон дат из раскрывающегося списка и нажав кнопку "Ввод!".

Внимание! Время в таблицах - всемирное. Для получения местного времени необходимо прибавить поправку, которая в Spence bay равна -6 ч.

Смотрите также архив погоды в соседних городах и на ближайших метеорологических станциях:

Погода в Shepherd Bay (Канада) (81 км)
Погода в Gjoa Haven Climate (Канада) (136 км)
Погода в Kugaaruk climate (Канада) (188 км)
Погода в Pelly Bay (Канада) (198 км)
Погода в Hat Island (Канада) (291 км)
Погода в Back River MAPS (Канада) (405 км)
Погода в Wager Bay (Канада) (444 км)
Погода в Cambridge Bay Gsn (Канада) (454 км)
Погода в Cambridge Bay Arpt (Канада) (454 км)
Погода в Arctic Bay (Канада) (490 км)

Пояснения к столбцам:

Ветер - указаны скорость ветра в м/с - средняя за 10 мин, порывы в срок и между сроками (в фигурных скобках) и направление, откуда дует ветер: С - северный, СВ - северо-восточный, В - восточный, ЮВ - юго-восточный, Ю - южный, ЮЗ - юго-западный, З - западный, СЗ - северо-западный.
Видимость - горизонтальная дальность видимости в метрах или километрах. При видимости от 1 до 10 км при отсутствии осадков обычно наблюдается дымка, при ухудшении видимости до 1 км и менее - туман. В сухую погоду видимость может ухудшаться дымом, пылью или мглою.
Явления - указаны атмосферные явления, наблюдавшиеся в срок или в последний час перед сроком; фигурными скобками обозначены явления, наблюдавшиеся между сроками (за 1-3 часа до срока); квадратными скобками обозначены град или гололедные отложения с указанием их диаметра в мм.
Облачность - указаны через наклонную черту общая и нижняя облачность в баллах и высота нижней границы облаков в метрах; квадратными скобками обозначены формы облаков: Ci - перистые, Cs - перисто-слоистые, Cc - перисто-кучевые, Ac - высококучевые, As - высокослоистые, Sc - слоисто-кучевые, Ns - слоисто-дождевые, Cu - кучевые, Cb - кучево-дождевые. Подробнее классификацию облаков см. в Атласе облаков (PDF).
T - Температура воздуха - температура, измеренная на высоте 2 м над землей.
Td - Температура точки росы - температура, при понижении до которой содержащийся в воздухе водяной пар достигнет насыщения.
f - Относительная влажность воздуха - влажноcть воздуха, измеренная на высоте 2 м над землей.
Te - Эффективная температура - температура, которую ощущает одетый по сезону человек в тени. Характеристика душности погоды. При расчете учитывается влияние влажности воздуха и скорости ветра на теплоощущения человека.
Tes - Эффективная температура на солнце - температура, которую ощущает человек, с поправкой на солнечный нагрев. Характеристика знойности погоды. Зависит от высоты солнца над горизонтом, облачности и скорости ветра. Ночью, в пасмурную погоду, а также при ветре 12 м/с и более поправка равна нулю.
P - Атмосферное давление - приведенное к уровню моря атмосферное давление.
Po - Атмосферное давление - измеренное на уровне метеостанции атмосферное давление.
Tmin - Минимальная температура - минимум температуры воздуха на высоте 2 м над землей.
Tmax - Максимальная температура - максимум температуры воздуха на высоте 2 м над землей.
R - Количество осадков - Количество выпавших осадков за период времени, мм. При наведении курсора мыши на число - период времени, за который выпало указанное количество осадков.
R24 - Количество осадков - Количество выпавших осадков за 24 часа, мм.
S - Снежный покров - Высота снежного покрова, см. При наведении курсора мыши на число - состояние снежного покрова и степень покрытия местности в баллах.